www.pogodaiklimat.ru

Погода и климат >> Архив погоды >> Россия >> Приморский край >> Рудная Пристань


АРХИВ ПОГОДЫ в Рудной Пристани

Время (UTC), дата Ветер
(напр.,м/с)
 
Видим.   Явления Облачность Т
(С)
Тd
(С)
f
(%)
Тe
(С)
Тes
(С)
Комфортность P
(гПа)
Po
(гПа)
Тmin
(С)
Tmax
(С)
R
(мм)
R24
(мм)
S
(см)
09 20.05 СВ 3 10 км слаб. ливневой дождь {туман} 10/8 300 м
[Cb cap As op]
+10.4 +10.2 99 +8 +8 998.9 994.9 +11.3 29
12 20.05 В 3 4000 м ливневой дождь {туман} 10/8 300 м
[Cb cap As op]
+10.4 +10.2 99 +8 +8 998.0 994.1
15 20.05 СВ 2 2000 м в посл. час ливневой дождь 10/8 300 м
[Cb cap As op]
+8.3 +8.1 99 +6 +6 997.5 993.5
18 20.05 В 1 2000 м дымка {ливн. осадки} 10/8 300 м
[Cb cap As op]
+8.0 +7.8 99 +7 +7 996.6 992.6
21 20.05 штиль 0 500 м туман ?/? +7.9 +7.7 99 +7 +7 996.7 992.7 +7.4 8
00 21.05 ЮВ 2 500 м туман ?/? +8.3 +8.2 99 +6 +6 996.1 992.1
03 21.05 В 3 500 м туман ?/? +8.9 +8.1 95 +6 +6 995.9 991.9
06 21.05 В 3 500 м туман ?/? +8.4 +7.8 96 +6 +6 995.4 991.4
09 21.05 В 1 20 км {туман} 4/3 600 м
[Sc diur, vesp Ci fib]
+9.1 +7.3 88 +8 +9 995.7 991.7 +10.2
12 21.05 штиль 0 20 км {туман} 6/4 600 м
[Sc Ci fib]
+7.1 +6.6 97 +6 +6 997.3 993.3
15 21.05 ЮВ 1 500 м туман ?/? +6.5 +6.2 98 +5 +5 998.0 994.0
18 21.05 штиль 0 500 м туман ?/? +6.2 +6.0 99 +5 +5 997.3 993.2
21 21.05 В 1 500 м туман ?/? +5.8 +5.6 99 +4 +4 998.3 994.2 +5.6
00 22.05 В 3 500 м туман ?/? +6.6 +6.1 97 +3 +3 998.1 994.1
03 22.05 В 3 500 м туман ?/? +8.3 +7.2 93 +6 +6 998.4 994.4
06 22.05 В 2 20 км {туман} 8/8 600 м
[Cb cap Ci sp]
+9.4 +6.9 84 +8 +10 997.4 993.4
09 22.05 СВ 1 20 км {ливн. осадки} 9/8 600 м
[Cb cap Ci sp]
+8.3 +7.8 97 +7 +8 998.3 994.3 +10.5 1
12 22.05 В 2 20 км {ливн. осадки} 9/8 600 м
[Cb cap Ci sp]
+8.1 +7.5 96 +6 +6 1000.4 996.4
15 22.05 З 1 10 км слаб. ливневой дождь 9/9 600 м
[Cb cap]
+7.6 +7.3 98 +7 +7 1000.6 996.6
18 22.05 В 1 20 км {ливн. осадки} 4/3 600 м
[Sc diur, vesp Ac lent]
+7.2 +7.0 99 +6 +6 1001.1 997.0
21 22.05 З 2 50 км 8/8 600 м
[Sc Ac lent]
+7.6 +7.2 97 +5 +6 1003.4 999.3 +6.8 0.3
00 23.05 ЮВ 2 50 км 4/3 600 м
[Cu med, cong Ci fib]
+13.1 +7.4 68 +12 +21 1004.0 1000.0
03 23.05 ЮВ 4 20 км в посл. час ливневой дождь 10/8 600 м
[Cb cap Ci sp]
+13.7 +7.0 64 +12 +14 1004.3 1000.4
06 23.05 ЮВ 1 20 км {ливн. осадки} 4/4 600 м
[Cb cap]
+15.2 +5.9 54 +16 +24 1003.9 1000.0
09 23.05 СВ 1 50 км в посл. час ливневой дождь 6/6 600 м
[Cb cap]
+15.1 +8.9 66 +16 +16 1004.6 1000.7 +17.3 0.4
12 23.05 штиль 0 50 км {ливн. осадки} 1/1 600 м
[Sc diur, vesp]
+10.1 +7.2 82 +9 +9 1006.8 1002.7
15 23.05 З 3 50 км ясно +7.7 +6.6 93 +5 +5 1007.0 1002.9
18 23.05 З 3 50 км ясно +6.1 +4.9 92 +3 +3 1007.7 1003.7
21 23.05 З 4 50 км 6/0
[Ac lent Ci sp]
+7.7 +6.1 90 +4 +5 1008.3 1004.2 +5.4
00 24.05 В 1 50 км 4/0
[Ac lent Ci fib]
+16.5 +7.1 54 +17 +30 опасность
простуды
1007.8 1003.9
03 24.05 СВ 2 50 км 6/3 600 м
[Sc Ci sp]
+16.3 +6.1 51 +16 +29 опасность
простуды
1008.0 1004.1
06 24.05 В 2 50 км 8/4 600 м
[Sc Ci sp]
+18.2 +4.4 40 +19 +25 1006.9 1003.0
09 24.05 В 3 50 км 8/4 600 м
[Sc Ci sp]
+13.6 +6.1 60 +13 +13 1005.9 1002.0 +19.0
12 24.05 штиль 0 50 км 6/4 600 м
[Sc Ci sp]
+8.9 +6.6 85 +8 +8 1006.0 1002.0
15 24.05 СЗ 1 50 км 3/3 600 м
[Sc]
+7.8 +6.6 92 +7 +7 1005.3 1001.3
18 24.05 штиль 0 50 км 1/1 600 м
[Sc]
+8.5 +7.5 93 +8 +8 1004.4 1000.4
21 24.05 З 1 20 км 3/0
[Ci sp]
+9.6 +8.8 95 +9 +11 1004.2 1000.2 +7.7
00 25.05 В 2 20 км 10/3 600 м
[Sc Ci]
+11.0 +6.7 75 +10 +17 1003.9 999.9
03 25.05 В 5 20 км 10/0
[Ci]
+12.9 +6.9 67 +11 +19 1003.4 999.4
06 25.05 В 3 20 км 10/4 600 м
[Sc Ci]
+15.4 +6.6 56 +15 +19 1002.2 998.3
09 25.05 ЮВ 1 20 км 9/3 600 м
[Cb cap Ci]
+21.0 +6.3 38 +23 +24 комфорт 1002.6 998.7 +23.4
12 25.05 З 1 20 км 9/3 600 м
[Cb cap Ci sp]
+22.3 +6.5 36 +23 +23 комфорт 1004.9 1001.1
15 25.05 З 2 20 км 3/0
[Ci sp]
+19.0 +8.5 51 +20 +20 1006.0 1002.2
18 25.05 З 2 20 км ясно +14.9 +9.5 70 +15 +15 1006.9 1002.9
21 25.05 СВ 1 50 км ясно +15.9 +9.6 66 +17 +19 1007.8 1003.8 +10.9
00 26.05 В 1 20 км ясно +17.6 +7.0 50 +19 +33 опасность
простуды
1007.8 1003.9
03 26.05 В 4 20 км 1/0
[Ac lent]
+17.8 +6.5 47 +18 +29 1006.9 1003.0
06 26.05 В 3 20 км 3/0
[Ac lent]
+12.0 +7.7 75 +10 +18 1006.5 1002.5
09 26.05 В 3 10 км дымка 6/0
[Ac lent Ci fib]
+10.1 +7.7 85 +8 +9 1005.7 1001.7 +25.8
12 26.05 штиль 0 20 км 4/0
[Ac lent Ci fib]
+11.5 +9.1 85 +11 +11 1006.1 1002.2
15 26.05 З 2
{12}
20 км ясно +6.1 +5.1 93 +4 +4 1010.9 1006.8
18 26.05 З 2 20 км ясно +5.1 +4.1 93 +2 +2 1011.7 1007.6
21 26.05 ЮЗ 1 20 км 10/8 600 м
[Cb cap Ci sp]
+7.0 +5.4 90 +6 +6 1011.7 1007.7 +5.0
00 27.05 ЮВ 2 20 км 8/1 600 м
[Sc diur, vesp Ci sp]
+9.4 +5.9 79 +8 +17 1011.2 1007.2
03 27.05 ЮВ 2 20 км 10/8 600 м
[Sc Ci sp]
+8.7 +6.1 84 +7 +10 1010.3 1006.2
06 27.05 В 1 20 км 10/10 600 м
[Sc]
+7.7 +6.0 89 +7 +7 1007.8 1003.8

 

Местоположение метеостанции Рудная Пристань (Приморский край, Россия): широта 44.37 долгота 135.80 высота над уровнем моря 34 м.

В архиве по умолчанию представлена погода в Рудной Пристани за последнюю неделю. Архивные данные за месяц целиком и за предыдущие месяцы, начиная с января 2011 года, Вы можете получить, выбрав интересующий диапазон дат из раскрывающегося списка и нажав кнопку "Ввод!".


*Определитесь, кто Вы:
робот инопланетянин человек

Внимание! Время в таблицах - всемирное. Для получения местного времени необходимо прибавить поправку, которая равна 10 ч.

Смотрите также архив погоды в соседних городах и на ближайших метеорологических станциях:

Погода в Богополе (Приморский край, Россия) (35 км)
Погода в Кавалерово (Приморский край, Россия) (65 км)
Погода в Ольге (Приморский край, Россия) (80 км)
Погода в Дальнегорске (Приморский край, Россия) (93 км)
Погода в Тернее (Приморский край, Россия) (94 км)
Погода в Мельничном (Приморский край, Россия) (122 км)
Погода в Лучегорске (Приморский край, Россия) (151 км)
Погода в Малой Кеме (Приморский край, Россия) (154 км)
Погода в Чугуевке (Приморский край, Россия) (161 км)
Погода в Малиново (Приморский край, Россия) (172 км)

Пояснения к столбцам:

Ветер - указаны скорость ветра в м/с - средняя за 10 мин, порывы в срок и между сроками (в фигурных скобках) и направление, откуда дует ветер: С - северный, СВ - северо-восточный, В - восточный, ЮВ - юго-восточный, Ю - южный, ЮЗ - юго-западный, З - западный, СЗ - северо-западный.
Видимость - горизонтальная дальность видимости в метрах или километрах. При видимости от 1 до 10 км при отсутствии осадков обычно наблюдается дымка, при ухудшении видимости до 1 км и менее - туман. В сухую погоду видимость может ухудшаться дымом, пылью или мглою.
Явления - указаны атмосферные явления, наблюдавшиеся в срок или в последний час перед сроком; фигурными скобками обозначены явления, наблюдавшиеся между сроками (за 1-3 часа до срока); квадратными скобками обозначены град или гололедные отложения с указанием их диаметра в мм.
Облачность - указаны через наклонную черту общая и нижняя облачность в баллах и высота нижней границы облаков в метрах; квадратными скобками обозначены формы облаков: Ci - перистые, Cs - перисто-слоистые, Cc - перисто-кучевые, Ac - высококучевые, As - высокослоистые, Sc - слоисто-кучевые, Ns - слоисто-дождевые, Cu - кучевые, Cb - кучево-дождевые. Подробнее классификацию облаков см. в Атласе облаков (PDF).
T - Температура воздуха - температура, измеренная на высоте 2 м над землей.
Td - Температура точки росы - температура, при понижении до которой содержащийся в воздухе водяной пар достигнет насыщения.
f - Относительная влажность воздуха - влажноcть воздуха, измеренная на высоте 2 м над землей.
Te - Эффективная температура - температура, которую ощущает одетый по сезону человек в тени. Характеристика душности погоды. При расчете учитывается влияние влажности воздуха и скорости ветра на теплоощущения человека.
Tes - Эффективная температура на солнце - температура, которую ощущает человек, с поправкой на солнечный нагрев. Характеристика знойности погоды. Зависит от высоты солнца над горизонтом, облачности и скорости ветра. Ночью, в пасмурную погоду, а также при ветре 12 м/с и более поправка равна нулю.
P - Атмосферное давление - приведенное к уровню моря атмосферное давление.
Po - Атмосферное давление - измеренное на уровне метеостанции атмосферное давление.
Tmin - Минимальная температура - минимум температуры воздуха на высоте 2 м над землей.
Tmax - Максимальная температура - максимум температуры воздуха на высоте 2 м над землей.
R - Количество осадков - Количество выпавших осадков за период времени, мм. При наведении курсора мыши на число - период времени, за который выпало указанное количество осадков.
R24 - Количество осадков - Количество выпавших осадков за 24 часа, мм.
S - Снежный покров - Высота снежного покрова, см. При наведении курсора мыши на число - состояние снежного покрова и степень покрытия местности в баллах.